Flag for Germany Weather past 2 weeks in Oldenburg, Lower Saxony, Germany

Now
61 °F

Broken clouds.


Feels Like: 61 °F
Forecast: 49 / 63 °F
Wind: 14 mph from Southwest

Location: Bremen Airport

Current Time: Aug 22, 2014 at 11:03:09 AM

Latest Report: Aug 22, 2014 at 10:20 AM


Visibility: N/A

Pressure: 29.83 "Hg

Humidity: 68%

Dew point: 50 °F

Location of OldenburgLocation

Historic Weather in Oldenburg — Graph

°F

Oldenburg temperature yesterday

Maximum temperature yesterday: 64 °F (at 1:50 PM)
Minimum temperature yesterday: 45 °F (at 5:20 AM)
Average temperature yesterday: 55 °F

Past Weeks' High & Low Weather Summary

 TemperatureHumidityPressure
High79 °F (Aug 8, 5:20 PM)100% (Aug 7, 11:50 PM)30.01 "Hg (Aug 7, 11:50 PM)
Low45 °F (Aug 21, 5:20 AM)40% (Aug 13, 3:20 PM)29.53 "Hg (Aug 18, 6:20 AM)
Average61 °F77%29.80 "Hg
* Reported Aug 7 9:20 AM — Aug 22 9:50 AM, Oldenburg, Weather by CustomWeather, © 2014

Note: Actual official high and low records may vary slightly from our data, if they occured in-between our weather recording intervals... More about our weather records

Advertising

Oldenburg weather history for previous 24 hours

 ConditionsComfort  
Time TempWeatherWind HumidityBarometerVisibility
9:50 AM
Aug 22
59 °FPartly sunny.15 mph72%29.83 "HgN/A
9:20 AM59 °FBroken clouds.14 mph72%29.83 "HgN/A
8:50 AM57 °FPartly sunny.13 mph72%29.83 "HgN/A
8:20 AM55 °FPartly sunny.10 mph77%29.83 "HgN/A
7:50 AM54 °FBroken clouds.10 mph88%29.83 "HgN/A
7:20 AM54 °FSunny.9 mph82%29.83 "Hg10 mi
6:50 AM54 °FClear.8 mph82%29.86 "Hg10 mi
6:20 AM54 °FClear.8 mph82%29.86 "Hg10 mi
5:50 AM52 °FClear.9 mph88%29.86 "Hg10 mi
5:20 AM52 °FClear.9 mph94%29.86 "Hg10 mi
4:20 AM54 °FClear.7 mph82%29.86 "Hg10 mi
3:50 AM54 °FClear.8 mph82%29.86 "Hg10 mi
3:20 AM54 °FClear.8 mph88%29.86 "Hg10 mi
2:50 AM54 °FPassing clouds.7 mph82%29.89 "HgN/A
2:20 AM54 °FSprinkles. Passing clouds.9 mph82%29.89 "HgN/A
1:50 AM55 °FPassing clouds.10 mph77%29.89 "HgN/A
1:20 AM52 °FClear.6 mph88%29.89 "Hg10 mi
12:50 AM52 °FClear.6 mph94%29.89 "Hg10 mi
12:20 AM52 °FClear.6 mph94%29.92 "Hg10 mi
11:50 PM
Aug 21
50 °FFog.3 mph94%29.92 "HgN/A
11:20 PM52 °FFog.2 mph94%29.92 "HgN/A
10:50 PM52 °FFog.2 mph94%29.92 "HgN/A
10:20 PM52 °FFog.3 mph94%29.92 "HgN/A
9:50 PM54 °FClear.3 mph94%29.92 "Hg10 mi
9:20 PM54 °FSunny.3 mph94%29.92 "Hg10 mi
8:50 PM55 °FBroken clouds.2 mph88%29.92 "HgN/A
8:20 PM55 °FSprinkles. Broken clouds.16 mph88%29.92 "Hg4 mi
7:50 PM59 °FSprinkles. Broken clouds.12 mph72%29.92 "HgN/A
7:20 PM61 °FScattered showers. Broken clouds.7 mph63%29.92 "HgN/A
6:50 PM63 °FBroken clouds.8 mph56%29.92 "HgN/A
6:20 PM63 °FBroken clouds.10 mph56%29.92 "HgN/A
5:50 PM64 °FPassing clouds.12 mph49%29.92 "HgN/A
5:20 PM64 °FPassing clouds.13 mph49%29.92 "HgN/A
4:50 PM63 °FPassing clouds.14 mph49%29.95 "HgN/A
4:20 PM64 °FPassing clouds.14 mph49%29.95 "HgN/A
3:50 PM63 °FScattered clouds.13 mph52%29.95 "HgN/A
3:20 PM63 °FScattered clouds.14 mph52%29.95 "HgN/A
2:50 PM64 °FScattered clouds.13 mph52%29.95 "HgN/A
2:20 PM63 °FScattered clouds.10 mph52%29.95 "HgN/A
1:50 PM64 °FScattered clouds.10 mph52%29.95 "HgN/A
1:20 PM63 °FScattered clouds.12 mph56%29.98 "HgN/A
12:50 PM63 °FScattered clouds.13 mph52%29.98 "HgN/A
12:20 PM61 °FScattered clouds.13 mph55%29.98 "HgN/A
11:50 AM59 °FScattered clouds.14 mph59%29.98 "HgN/A
11:20 AM59 °FScattered clouds.13 mph68%29.98 "HgN/A
Weather by CustomWeather, © 2014

See weather overviewHow to use our weather pages